Time,TemperatureF,DewpointF,PressureIn,WindDirection,WindDirectionDegrees,WindSpeedMPH,WindSpeedGustMPH,Humidity,HourlyPrecipIn,Conditions,Clouds,dailyrainin,SoftwareType,DateUTC
2013-03-06 00:02:00,40.0,29.0,-100.00,North,10,12.0,19.0,66,-99.99,,,-99.99,,2013-03-06 05:02:00,
2013-03-06 00:12:00,40.0,30.0,-100.00,North,10,12.0,18.0,67,-99.99,,,-99.99,,2013-03-06 05:12:00,
2013-03-06 00:22:00,40.0,30.0,-100.00,North,10,12.0,18.0,67,-99.99,,,-99.99,,2013-03-06 05:22:00,
2013-03-06 00:32:00,40.0,30.0,-100.00,NNE,20,16.0,21.0,67,-99.99,,,-99.99,,2013-03-06 05:32:00,
2013-03-06 00:42:00,40.0,30.0,-100.00,North,10,15.0,24.0,68,-99.99,,,-99.99,,2013-03-06 05:42:00,
2013-03-06 00:52:00,40.0,30.0,-100.00,North,10,19.0,29.0,66,-99.99,,,-99.99,,2013-03-06 05:52:00,
2013-03-06 01:02:00,40.0,30.0,-100.00,North,10,19.0,29.0,66,-99.99,,,-99.99,,2013-03-06 06:02:00,
2013-03-06 01:12:00,40.0,30.0,-100.00,North,10,18.0,29.0,67,-99.99,,,-99.99,,2013-03-06 06:12:00,
2013-03-06 01:22:00,40.0,30.0,-100.00,North,10,18.0,29.0,67,-99.99,,,-99.99,,2013-03-06 06:22:00,
2013-03-06 01:32:00,41.0,31.0,-100.00,North,10,18.0,26.0,68,-99.99,,,-99.99,,2013-03-06 06:32:00,
2013-03-06 01:42:00,41.0,31.0,-100.00,North,10,18.0,26.0,68,-99.99,,,-99.99,,2013-03-06 06:42:00,
2013-03-06 01:52:00,41.0,32.0,-100.00,North,10,18.0,24.0,69,-99.99,,,-99.99,,2013-03-06 06:52:00,
2013-03-06 02:02:00,41.0,32.0,-100.00,North,10,18.0,24.0,69,-99.99,,,-99.99,,2013-03-06 07:02:00,
2013-03-06 02:11:00,41.0,32.0,-100.00,North,10,14.0,24.0,70,-99.99,,,-99.99,,2013-03-06 07:11:00,
2013-03-06 02:22:00,41.0,32.0,-100.00,North,10,14.0,24.0,70,-99.99,,,-99.99,,2013-03-06 07:22:00,
2013-03-06 02:32:00,41.0,33.0,-100.00,NNE,15,13.0,23.0,71,-99.99,,,-99.99,,2013-03-06 07:32:00,
2013-03-06 02:42:00,42.0,33.0,-100.00,North,10,17.0,22.0,72,-99.99,,,-99.99,,2013-03-06 07:42:00,
2013-03-06 02:52:00,42.0,33.0,-100.00,North,10,17.0,22.0,72,-99.99,,,-99.99,,2013-03-06 07:52:00,
2013-03-06 03:01:00,42.0,35.0,-100.00,North,10,16.0,28.0,76,-99.99,,,-99.99,,2013-03-06 08:01:00,
2013-03-06 03:11:00,41.0,36.0,-100.00,SE,145,19.0,30.0,82,-99.99,,,-99.99,,2013-03-06 08:11:00,
2013-03-06 03:21:00,41.0,36.0,-100.00,SE,145,19.0,30.0,82,-99.99,,,-99.99,,2013-03-06 08:21:00,
2013-03-06 03:32:00,41.0,37.0,-100.00,South,175,20.0,30.0,85,-99.99,,,-99.99,,2013-03-06 08:32:00,
2013-03-06 03:42:00,41.0,37.0,-100.00,South,190,21.0,31.0,85,-99.99,,,-99.99,,2013-03-06 08:42:00,
2013-03-06 03:52:00,41.0,37.0,-100.00,South,190,21.0,30.0,87,-99.99,,,-99.99,,2013-03-06 08:52:00,
2013-03-06 04:02:00,41.0,37.0,-100.00,South,190,21.0,30.0,87,-99.99,,,-99.99,,2013-03-06 09:02:00,
2013-03-06 04:12:00,41.0,37.0,-100.00,SSW,195,23.0,35.0,87,-99.99,,,-99.99,,2013-03-06 09:12:00,
2013-03-06 04:22:00,41.0,37.0,-100.00,SSW,195,23.0,35.0,87,-99.99,,,-99.99,,2013-03-06 09:22:00,
2013-03-06 04:32:00,41.0,36.0,-100.00,SSW,200,22.0,37.0,83,-99.99,,,-99.99,,2013-03-06 09:32:00,
2013-03-06 04:42:00,40.0,36.0,-100.00,SW,215,21.0,40.0,84,-99.99,,,-99.99,,2013-03-06 09:42:00,
2013-03-06 04:52:00,40.0,36.0,-100.00,SW,215,21.0,40.0,84,-99.99,,,-99.99,,2013-03-06 09:52:00,
2013-03-06 05:02:00,41.0,38.0,-100.00,SSW,210,18.0,34.0,90,-99.99,,,-99.99,,2013-03-06 10:02:00,
2013-03-06 05:11:00,41.0,38.0,-100.00,SSW,195,23.0,40.0,89,-99.99,,,-99.99,,2013-03-06 10:11:00,
2013-03-06 05:22:00,41.0,38.0,-100.00,SSW,195,23.0,40.0,89,-99.99,,,-99.99,,2013-03-06 10:22:00,
2013-03-06 05:32:00,41.0,38.0,-100.00,SSW,200,28.0,43.0,88,-99.99,,,-99.99,,2013-03-06 10:32:00,
2013-03-06 05:42:00,41.0,37.0,-100.00,SSW,200,24.0,41.0,85,-99.99,,,-99.99,,2013-03-06 10:42:00,
2013-03-06 05:52:00,41.0,37.0,-100.00,SSW,195,30.0,41.0,86,-99.99,,,-99.99,,2013-03-06 10:52:00,
2013-03-06 06:02:00,41.0,37.0,-100.00,SSW,195,30.0,41.0,86,-99.99,,,-99.99,,2013-03-06 11:02:00,
2013-03-06 06:11:00,41.0,37.0,-100.00,SSW,200,29.0,42.0,85,-99.99,,,-99.99,,2013-03-06 11:11:00,
2013-03-06 06:23:00,41.0,37.0,-100.00,SSW,200,29.0,42.0,85,-99.99,,,-99.99,,2013-03-06 11:23:00,
2013-03-06 06:32:00,41.0,38.0,-100.00,SSW,205,24.0,44.0,88,-99.99,,,-99.99,,2013-03-06 11:32:00,
2013-03-06 06:42:00,41.0,38.0,-100.00,SSW,200,22.0,35.0,89,-99.99,,,-99.99,,2013-03-06 11:42:00,
2013-03-06 06:52:00,41.0,38.0,-100.00,SSW,200,22.0,35.0,89,-99.99,,,-99.99,,2013-03-06 11:52:00,
2013-03-06 07:02:00,41.0,38.0,-100.00,SSW,210,19.0,45.0,89,-99.99,,,-99.99,,2013-03-06 12:02:00,
2013-03-06 07:12:00,42.0,39.0,-100.00,SW,215,22.0,37.0,90,-99.99,,,-99.99,,2013-03-06 12:12:00,
2013-03-06 07:22:00,42.0,39.0,-100.00,SW,215,22.0,37.0,90,-99.99,,,-99.99,,2013-03-06 12:22:00,
2013-03-06 07:33:00,42.0,38.0,-100.00,SW,215,23.0,37.0,88,-99.99,,,-99.99,,2013-03-06 12:33:00,
2013-03-06 07:42:00,42.0,37.0,-100.00,SSW,205,28.0,42.0,83,-99.99,,,-99.99,,2013-03-06 12:42:00,
2013-03-06 07:53:00,42.0,37.0,-100.00,SSW,205,28.0,42.0,83,-99.99,,,-99.99,,2013-03-06 12:53:00,
2013-03-06 08:02:00,42.0,37.0,-100.00,SSW,205,24.0,42.0,82,-99.99,,,-99.99,,2013-03-06 13:02:00,
2013-03-06 08:12:00,42.0,37.0,-100.00,SSW,205,24.0,42.0,82,-99.99,,,-99.99,,2013-03-06 13:12:00,
2013-03-06 08:32:00,42.0,39.0,-100.00,SSW,195,30.0,42.0,91,-99.99,,,-99.99,,2013-03-06 13:32:00,
2013-03-06 08:42:00,42.0,39.0,-100.00,SSW,200,28.0,41.0,91,-99.99,,,-99.99,,2013-03-06 13:42:00,
2013-03-06 08:52:00,42.0,39.0,-100.00,SSW,200,28.0,41.0,91,-99.99,,,-99.99,,2013-03-06 13:52:00,
2013-03-06 09:02:00,42.0,39.0,-100.00,SSW,200,31.0,43.0,91,-99.99,,,-99.99,,2013-03-06 14:02:00,
2013-03-06 09:11:00,42.0,39.0,-100.00,SSW,195,33.0,44.0,91,-99.99,,,-99.99,,2013-03-06 14:11:00,
2013-03-06 09:22:00,42.0,39.0,-100.00,SSW,195,33.0,44.0,91,-99.99,,,-99.99,,2013-03-06 14:22:00,
2013-03-06 09:32:00,41.0,39.0,-100.00,SSW,200,36.0,48.0,91,-99.99,,,-99.99,,2013-03-06 14:32:00,
2013-03-06 09:42:00,41.0,39.0,-100.00,SSW,200,32.0,44.0,91,-99.99,,,-99.99,,2013-03-06 14:42:00,
2013-03-06 09:52:00,41.0,39.0,-100.00,SSW,200,32.0,44.0,91,-99.99,,,-99.99,,2013-03-06 14:52:00,
2013-03-06 10:02:00,41.0,39.0,-100.00,SSW,200,36.0,49.0,91,-99.99,,,-99.99,,2013-03-06 15:02:00,
2013-03-06 10:12:00,41.0,38.0,-100.00,SSW,195,37.0,51.0,90,-99.99,,,-99.99,,2013-03-06 15:12:00,
2013-03-06 10:22:00,41.0,38.0,-100.00,SSW,195,37.0,51.0,90,-99.99,,,-99.99,,2013-03-06 15:22:00,
2013-03-06 10:32:00,41.0,39.0,-100.00,South,180,32.0,53.0,91,-99.99,,,-99.99,,2013-03-06 15:32:00,
2013-03-06 10:42:00,41.0,39.0,-100.00,South,185,41.0,53.0,91,-99.99,,,-99.99,,2013-03-06 15:42:00,
2013-03-06 10:52:00,41.0,39.0,-100.00,South,185,41.0,53.0,91,-99.99,,,-99.99,,2013-03-06 15:52:00,
2013-03-06 11:02:00,41.0,39.0,-100.00,South,185,36.0,51.0,91,-99.99,,,-99.99,,2013-03-06 16:02:00,
2013-03-06 11:12:00,41.0,39.0,-100.00,SSW,195,35.0,51.0,91,-99.99,,,-99.99,,2013-03-06 16:12:00,
2013-03-06 11:21:00,41.0,39.0,-100.00,SSW,195,35.0,51.0,91,-99.99,,,-99.99,,2013-03-06 16:21:00,
2013-03-06 11:32:00,41.0,38.0,-100.00,South,190,38.0,56.0,90,-99.99,,,-99.99,,2013-03-06 16:32:00,
2013-03-06 11:42:00,41.0,38.0,-100.00,South,180,42.0,57.0,88,-99.99,,,-99.99,,2013-03-06 16:42:00,
2013-03-06 11:52:00,41.0,38.0,-100.00,South,180,42.0,57.0,88,-99.99,,,-99.99,,2013-03-06 16:52:00,
2013-03-06 12:01:00,41.0,38.0,-100.00,South,180,39.0,61.0,89,-99.99,,,-99.99,,2013-03-06 17:01:00,
2013-03-06 12:11:00,41.0,38.0,-100.00,South,185,38.0,54.0,90,-99.99,,,-99.99,,2013-03-06 17:11:00,
2013-03-06 12:22:00,41.0,38.0,-100.00,South,185,38.0,54.0,90,-99.99,,,-99.99,,2013-03-06 17:22:00,
2013-03-06 12:32:00,41.0,39.0,-100.00,South,180,38.0,56.0,91,-99.99,,,-99.99,,2013-03-06 17:32:00,
2013-03-06 12:42:00,41.0,38.0,-100.00,SSE,160,46.0,61.0,89,-99.99,,,-99.99,,2013-03-06 17:42:00,
2013-03-06 12:52:00,41.0,38.0,-100.00,SSE,160,46.0,61.0,89,-99.99,,,-99.99,,2013-03-06 17:52:00,
2013-03-06 13:02:00,41.0,37.0,-100.00,South,170,46.0,66.0,84,-99.99,,,-99.99,,2013-03-06 18:02:00,
2013-03-06 13:32:00,41.0,37.0,-100.00,South,170,49.0,68.0,86,-99.99,,,-99.99,,2013-03-06 18:32:00,
2013-03-06 13:42:00,41.0,37.0,-100.00,South,170,50.0,69.0,86,-99.99,,,-99.99,,2013-03-06 18:42:00,
2013-03-06 13:52:00,41.0,37.0,-100.00,South,170,50.0,69.0,86,-99.99,,,-99.99,,2013-03-06 18:52:00,
2013-03-06 14:02:00,41.0,38.0,-100.00,SSE,160,48.0,61.0,88,-99.99,,,-99.99,,2013-03-06 19:02:00,
2013-03-06 14:11:00,41.0,37.0,-100.00,SSE,150,42.0,72.0,85,-99.99,,,-99.99,,2013-03-06 19:11:00,
2013-03-06 14:22:00,41.0,37.0,-100.00,SSE,150,42.0,72.0,85,-99.99,,,-99.99,,2013-03-06 19:22:00,
2013-03-06 14:32:00,41.0,37.0,-100.00,SSE,165,49.0,65.0,85,-99.99,,,-99.99,,2013-03-06 19:32:00,
2013-03-06 14:43:00,41.0,37.0,-100.00,SSE,155,49.0,70.0,84,-99.99,,,-99.99,,2013-03-06 19:43:00,
2013-03-06 14:52:00,41.0,37.0,-100.00,SSE,155,49.0,70.0,84,-99.99,,,-99.99,,2013-03-06 19:52:00,
2013-03-06 15:02:00,41.0,37.0,-100.00,SSE,165,43.0,76.0,86,-99.99,,,-99.99,,2013-03-06 20:02:00,
2013-03-06 15:12:00,41.0,37.0,-100.00,SSE,165,45.0,68.0,86,-99.99,,,-99.99,,2013-03-06 20:12:00,
2013-03-06 15:22:00,41.0,37.0,-100.00,SSE,165,45.0,68.0,86,-99.99,,,-99.99,,2013-03-06 20:22:00,
2013-03-06 15:33:00,41.0,36.0,-100.00,South,175,50.0,66.0,83,-99.99,,,-99.99,,2013-03-06 20:33:00,
2013-03-06 15:42:00,41.0,37.0,-100.00,South,185,50.0,64.0,84,-99.99,,,-99.99,,2013-03-06 20:42:00,
2013-03-06 15:52:00,41.0,37.0,-100.00,South,185,50.0,64.0,84,-99.99,,,-99.99,,2013-03-06 20:52:00,
2013-03-06 16:02:00,41.0,36.0,-100.00,South,170,49.0,67.0,85,-99.99,,,-99.99,,2013-03-06 21:02:00,
2013-03-06 16:12:00,40.0,36.0,-100.00,SSE,165,44.0,69.0,86,-99.99,,,-99.99,,2013-03-06 21:12:00,
2013-03-06 16:22:00,40.0,36.0,-100.00,SSE,165,44.0,69.0,86,-99.99,,,-99.99,,2013-03-06 21:22:00,
2013-03-06 16:32:00,40.0,36.0,-100.00,South,180,46.0,67.0,86,-99.99,,,-99.99,,2013-03-06 21:32:00,
2013-03-06 16:42:00,39.0,36.0,-100.00,SSE,160,54.0,73.0,86,-99.99,,,-99.99,,2013-03-06 21:42:00,
2013-03-06 16:52:00,39.0,36.0,-100.00,SSE,160,54.0,73.0,86,-99.99,,,-99.99,,2013-03-06 21:52:00,
2013-03-06 17:02:00,39.0,34.0,-100.00,SSE,165,54.0,70.0,83,-99.99,,,-99.99,,2013-03-06 22:02:00,
2013-03-06 17:12:00,39.0,34.0,-100.00,SSE,160,53.0,78.0,82,-99.99,,,-99.99,,2013-03-06 22:12:00,
2013-03-06 17:22:00,39.0,34.0,-100.00,SSE,160,53.0,78.0,82,-99.99,,,-99.99,,2013-03-06 22:22:00,
2013-03-06 17:32:00,39.0,34.0,-100.00,SSE,160,55.0,74.0,82,-99.99,,,-99.99,,2013-03-06 22:32:00,
2013-03-06 17:42:00,39.0,34.0,-100.00,SSE,165,50.0,66.0,84,-99.99,,,-99.99,,2013-03-06 22:42:00,
2013-03-06 17:52:00,39.0,34.0,-100.00,SSE,165,50.0,66.0,84,-99.99,,,-99.99,,2013-03-06 22:52:00,
2013-03-06 18:02:00,38.0,34.0,-100.00,SSE,160,50.0,59.0,84,-99.99,,,-99.99,,2013-03-06 23:02:00,
2013-03-06 18:11:00,38.0,34.0,-100.00,SSE,160,47.0,67.0,83,-99.99,,,-99.99,,2013-03-06 23:11:00,
2013-03-06 18:22:00,38.0,34.0,-100.00,SSE,160,47.0,67.0,83,-99.99,,,-99.99,,2013-03-06 23:22:00,
2013-03-06 18:32:00,38.0,34.0,-100.00,SSE,160,47.0,61.0,83,-99.99,,,-99.99,,2013-03-06 23:32:00,
2013-03-06 18:42:00,38.0,34.0,-100.00,SSE,160,44.0,59.0,84,-99.99,,,-99.99,,2013-03-06 23:42:00,
2013-03-06 18:52:00,38.0,34.0,-100.00,SSE,160,44.0,59.0,84,-99.99,,,-99.99,,2013-03-06 23:52:00,
2013-03-06 19:02:00,38.0,33.0,-100.00,SSE,160,45.0,61.0,85,-99.99,,,-99.99,,2013-03-07 00:02:00,
2013-03-06 19:11:00,37.0,33.0,-100.00,SSE,160,37.0,56.0,85,-99.99,,,-99.99,,2013-03-07 00:11:00,
2013-03-06 19:22:00,37.0,33.0,-100.00,SSE,160,37.0,56.0,85,-99.99,,,-99.99,,2013-03-07 00:22:00,
2013-03-06 19:32:00,37.0,34.0,-100.00,SSE,165,43.0,54.0,86,-99.99,,,-99.99,,2013-03-07 00:32:00,
2013-03-06 19:42:00,37.0,33.0,-100.00,SSE,155,38.0,56.0,86,-99.99,,,-99.99,,2013-03-07 00:42:00,
2013-03-06 19:52:00,37.0,33.0,-100.00,SSE,155,38.0,56.0,86,-99.99,,,-99.99,,2013-03-07 00:52:00,
2013-03-06 20:02:00,36.0,33.0,-100.00,SSE,160,39.0,59.0,88,-99.99,,,-99.99,,2013-03-07 01:02:00,
2013-03-06 20:12:00,36.0,33.0,-100.00,SSE,155,35.0,52.0,88,-99.99,,,-99.99,,2013-03-07 01:12:00,
2013-03-06 20:22:00,36.0,33.0,-100.00,SSE,155,35.0,52.0,88,-99.99,,,-99.99,,2013-03-07 01:22:00,
2013-03-06 20:32:00,36.0,33.0,-100.00,SSE,155,37.0,46.0,88,-99.99,,,-99.99,,2013-03-07 01:32:00,
2013-03-06 20:42:00,36.0,33.0,-100.00,SE,145,38.0,48.0,88,-99.99,,,-99.99,,2013-03-07 01:42:00,
2013-03-06 20:52:00,36.0,33.0,-100.00,SE,145,38.0,48.0,88,-99.99,,,-99.99,,2013-03-07 01:52:00,
2013-03-06 21:01:00,36.0,33.0,-100.00,SSE,150,37.0,46.0,88,-99.99,,,-99.99,,2013-03-07 02:01:00,
2013-03-06 21:11:00,36.0,33.0,-100.00,SSE,150,34.0,52.0,88,-99.99,,,-99.99,,2013-03-07 02:11:00,
2013-03-06 21:22:00,36.0,33.0,-100.00,SSE,150,34.0,52.0,88,-99.99,,,-99.99,,2013-03-07 02:22:00,
2013-03-06 21:32:00,36.0,33.0,-100.00,SSE,150,38.0,46.0,88,-99.99,,,-99.99,,2013-03-07 02:32:00,
2013-03-06 21:42:00,36.0,33.0,-100.00,SSE,150,38.0,46.0,88,-99.99,,,-99.99,,2013-03-07 02:42:00,
2013-03-06 22:02:00,36.0,33.0,-100.00,SSE,150,34.0,45.0,88,-99.99,,,-99.99,,2013-03-07 03:02:00,
2013-03-06 22:12:00,36.0,33.0,-100.00,SSE,150,34.0,47.0,88,-99.99,,,-99.99,,2013-03-07 03:12:00,
2013-03-06 22:22:00,36.0,33.0,-100.00,SSE,150,34.0,47.0,88,-99.99,,,-99.99,,2013-03-07 03:22:00,
2013-03-06 22:32:00,36.0,33.0,-100.00,SSE,155,37.0,48.0,88,-99.99,,,-99.99,,2013-03-07 03:32:00,
2013-03-06 22:42:00,36.0,33.0,-100.00,SE,145,36.0,45.0,88,-99.99,,,-99.99,,2013-03-07 03:42:00,
2013-03-06 22:52:00,36.0,33.0,-100.00,SE,145,36.0,45.0,88,-99.99,,,-99.99,,2013-03-07 03:52:00,
2013-03-06 23:02:00,36.0,33.0,-100.00,SE,145,37.0,47.0,88,-99.99,,,-99.99,,2013-03-07 04:02:00,
2013-03-06 23:12:00,36.0,33.0,-100.00,SE,145,29.0,45.0,88,-99.99,,,-99.99,,2013-03-07 04:12:00,
2013-03-06 23:22:00,36.0,33.0,-100.00,SE,145,29.0,45.0,88,-99.99,,,-99.99,,2013-03-07 04:22:00,
2013-03-06 23:32:00,36.0,33.0,-100.00,SE,145,34.0,46.0,88,-99.99,,,-99.99,,2013-03-07 04:32:00,
2013-03-06 23:42:00,36.0,33.0,-100.00,SSE,150,31.0,45.0,88,-99.99,,,-99.99,,2013-03-07 04:42:00,
2013-03-06 23:52:00,36.0,33.0,-100.00,SSE,150,31.0,45.0,88,-99.99,,,-99.99,,2013-03-07 04:52:00,